Location: Newark
(55.7167°N, 12.5667°E)
Time: 21:29:28
(UTC+00:00)

N. Korean satellite - Pass Details

Date: 16 December 2019
Orbit: 454 x 508 km, 97.2° (Epoch: 17 January)

Event Time Altitude Azimuth Distance (km) Brightness Sun altitude
Rises 05:31:33 0° 12° (NNE) 2,546 10.2 -15.5°
Reaches altitude 10° 05:33:39 10° 10° (N) 1,653 9.2 -15.2°
Maximum altitude 05:37:10 66° 288° (WNW) 516 6.4 -14.8°
Drops below altitude 10° 05:40:36 10° 205° (SSW) 1,612 9.2 -14.3°
Sets 05:42:37 0° 203° (SSW) 2,476 10.1 -14.0°
